User: anonymous   Login
Location: Unspecified
(0.0000°N, 0.0000°E)
Time: 06:05:43
(UTC+00:00)
Language:

USA 224 - Orbit

View from above orbital plane
View from above orbital plane
View from above satellite
View from above satellite

Ground track
Ground track

The orbit data is extracted from the following two-line orbital elements,

1 37348U 11002A   17228.01844297 0.00004000  00000-0  37783-4 0    03
2 37348  97.8999 339.2894 0521965  22.7712 337.2286 14.80525853    07
Epoch (UTC): 16 August 2017 00:26:33
Eccentricity: 0.0521965
inclination: 97.8999°
perigee height: 262 km
apogee height: 993 km
right ascension of ascending node: 339.2894°
argument of perigee: 22.7712°
revolutions per day: 14.80525853
mean anomaly at epoch: 337.2286°
orbit number at epoch: 0

The dashed part of the orbit path shows where the satellite is in the earth's shadow,  

DLR